ACS3

Last updated on Wed Jul 02 2025 00:02:15 GMT+0000 (Coordinated Universal Time)

1 59588U 24077B 25182.55358948 .00008556 00000+0 82829-2 0 9994 2 59588 97.4616 173.8340 0072558 70.9266 289.9731 13.78687375 59472
UTC large
Height (km)
Speed (km/s)
/
Latitude / Longitude
Inclination (degrees)
Orbital Period (minutes)
Azimuth
Elevation
Range (km)
Doppler Factor

Next 0 passes for location: London (51.5072 / 0.1276)

Sorry there are no passes over London.